• Join FlightAware (Why Join?)
  • Login
  • US Flag 
 
07:29PM EST


 

Airport Tracker/Info


-or-


 

Live Flight TrackerFlight Track Log ✈ N27XP ✈ 18-Jun-2013 ✈ KRDU - KOMA

Flight Track Log - Related Links

Times and Time Zones

All times are in EDT time to prevent confusion due to time zone crossing. See the N27XP flight status page for this flight to view local times or setup timezone preferences in your user account.

Time Position Orientation Groundspeed Altitude Reporting Facility
EDT Latitude Longitude Course Direction KTS MPH feet Rate Location/Type
08:57AM 35.8561 -78.8083 246° West 163 188 1,500  Level Washington Center
08:58AM 35.8336 -78.8714 246° West 173 199 4,800 2,280 Climbing Washington Center
08:59AM 35.8503 -78.9489 285° West 173 199 7,100 2,340 Climbing Washington Center
09:00AM 35.8561 -79.0339 275° West 216 249 9,500 2,580 Climbing Washington Center
09:01AM 35.8469 -79.1333 264° West 252 290 12,200 2,520 Climbing Washington Center
09:02AM 35.8422 -79.2281 267° West 281 323 14,600 2,220 Climbing Washington Center
09:03AM 35.8350 -79.3200 264° West 281 323 16,800 1,980 Climbing Washington Center
09:04AM 35.8281 -79.4092 265° West 273 314 18,700 1,860 Climbing Washington Center
09:06AM 35.8144 -79.5728 264° West 270 311 22,000 1,500 Climbing Atlanta Center
09:07AM 35.8133 -79.6650 269° West 275 316 22,900 660 Climbing Atlanta Center
09:08AM 35.8242 -79.7900 276° West 305 351 23,400 1,020 Climbing Atlanta Center
09:09AM 35.8322 -79.9047 275° West 326 375 25,000 1,500 Climbing Atlanta Center
09:10AM 35.8381 -80.0172 274° West 333 383 26,400 1,380 Climbing Atlanta Center
09:11AM 35.8458 -80.1269 275° West 333 383 27,800 1,320 Climbing Atlanta Center
09:12AM 35.8572 -80.2264 278° West 328 377 29,100 1,080 Climbing Atlanta Center
09:13AM 35.8981 -80.3294 296° West 323 372 30,000 1,020 Climbing Atlanta Center
09:14AM 35.9386 -80.4303 296° West 335 386 31,200 1,080 Climbing Atlanta Center
09:15AM 35.9789 -80.5286 297° West 335 386 32,200 1,020 Climbing Atlanta Center
09:16AM 36.0233 -80.6292 299° West 335 386 33,300 900 Climbing Atlanta Center
09:17AM 36.0678 -80.7303 299° West 335 386 34,000 300 Climbing Atlanta Center
09:18AM 36.1125 -80.8364 298° West 341 392 34,000  Level Atlanta Center
09:19AM 36.1636 -80.9603 297° West 346 398 34,000  Level Atlanta Center
09:20AM 36.2144 -81.0792 298° West 377 434 34,000 540 Level Atlanta Center
09:21AM 36.2631 -81.1933 298° West 382 440 35,100 960 Climbing Atlanta Center
09:22AM 36.3094 -81.3050 297° West 375 432 36,000 420 Climbing Atlanta Center
09:23AM 36.3556 -81.4194 297° West 370 426 36,000  Level Atlanta Center
09:24AM 36.4039 -81.5367 297° West 375 432 36,000  Level Atlanta Center
09:25AM 36.4522 -81.6589 296° West 383 441 36,000  Level Atlanta Center
09:27AM 36.5381 -81.8667 297° West 389 448 36,000  Level Indianapolis Center
09:28AM 36.5950 -82.0050 297° West 386 444 36,000  Level Indianapolis Center
09:29AM 36.6439 -82.1253 297° West 388 447 36,000  Level Indianapolis Center
09:30AM 36.6922 -82.2456 297° West 390 449 36,000  Level Indianapolis Center
09:31AM 36.7414 -82.3669 297° West 390 449 36,000  Level Indianapolis Center
09:32AM 36.7906 -82.4881 297° West 392 451 36,000  Level Indianapolis Center
09:33AM 36.8392 -82.6108 296° West 394 453 36,000  Level Indianapolis Center
09:34AM 36.8956 -82.7511 297° West 391 450 36,000  Level Indianapolis Center
09:35AM 36.9458 -82.8808 296° West 401 461 36,000  Level Indianapolis Center
09:36AM 36.9928 -82.9972 297° West 402 463 36,000  Level Indianapolis Center
09:37AM 37.0489 -83.1414 296° West 399 459 36,000  Level Indianapolis Center
09:38AM 37.0972 -83.2656 296° West 397 457 36,000  Level Indianapolis Center
09:39AM 37.1461 -83.3906 296° West 398 458 36,000  Level Indianapolis Center
09:40AM 37.1864 -83.5181 292° West 396 456 36,000  Level Indianapolis Center
09:41AM 37.2233 -83.6472 290° West 392 451 36,000  Level Indianapolis Center
09:42AM 37.2608 -83.7972 287° West 388 447 36,000  Level Indianapolis Center
09:43AM 37.2786 -83.9281 280° West 382 440 36,000  Level Indianapolis Center
09:45AM 37.2908 -84.0606 277° West 382 440 36,000  Level Indianapolis Center
09:46AM 37.3103 -84.1908 281° West 379 436 36,000  Level Indianapolis Center
09:47AM 37.3453 -84.3172 289° West 382 440 36,000  Level Indianapolis Center
09:48AM 37.3958 -84.4350 298° West 381 438 36,000  Level Indianapolis Center
09:49AM 37.4550 -84.5719 299° West 382 440 36,000  Level Indianapolis Center
09:50AM 37.5036 -84.6900 297° West 380 437 36,000  Level Indianapolis Center
09:51AM 37.5528 -84.8083 298° West 379 436 36,000  Level Indianapolis Center
09:52AM 37.6008 -84.9253 297° West 376 433 36,000  Level Indianapolis Center
09:53AM 37.6472 -85.0419 297° West 373 429 36,000  Level Indianapolis Center
09:54AM 37.7006 -85.1767 297° West 366 421 36,000 -360 Level Indianapolis Center
09:55AM 37.7436 -85.2917 295° West 363 418 35,300 -780 Descending Indianapolis Center
09:56AM 37.7864 -85.4064 295° West 360 414 34,500 -780 Descending Indianapolis Center
09:57AM 37.8294 -85.5203 296° West 359 413 33,700 -780 Descending Indianapolis Center
09:58AM 37.8750 -85.6378 296° West 370 426 33,000 -660 Descending Indianapolis Center
09:59AM 37.9225 -85.7619 296° West 390 449 32,400 -540 Descending Indianapolis Center
10:00AM 37.9700 -85.8889 295° West 399 459 32,000 -240 Descending Indianapolis Center
10:01AM 38.0264 -86.0406 295° West 396 456 32,000  Level Indianapolis Center
10:02AM 38.0728 -86.1647 295° West 390 449 32,000  Level Indianapolis Center
10:03AM 38.1183 -86.2894 295° West 389 448 32,000  Level Indianapolis Center
10:04AM 38.1636 -86.4142 295° West 390 449 32,000  Level Indianapolis Center
10:05AM 38.2103 -86.5397 295° West 393 452 32,000  Level Indianapolis Center
10:06AM 38.2556 -86.6658 295° West 392 451 32,000  Level Indianapolis Center
10:07AM 38.3017 -86.7903 295° West 391 450 32,000  Level Indianapolis Center
10:08AM 38.3556 -86.9408 295° West 395 455 32,000  Level Indianapolis Center
10:09AM 38.4019 -87.0706 295° West 402 463 32,000  Level Indianapolis Center
10:10AM 38.4467 -87.1947 295° West 401 461 32,000  Level Indianapolis Center
10:11AM 38.4925 -87.3239 294° West 401 461 32,000  Level Indianapolis Center
10:12AM 38.5472 -87.4794 294° West 401 461 32,000  Level Indianapolis Center
10:13AM 38.5933 -87.6092 294° West 400 460 32,000  Level Indianapolis Center
10:15AM 38.6389 -87.7397 294° West 402 463 32,000  Level Indianapolis Center
10:16AM 38.6844 -87.8686 294° West 398 458 32,000  Level Indianapolis Center
10:17AM 38.7297 -88.0000 294° West 401 461 32,000  Level Indianapolis Center
10:18AM 38.7750 -88.1311 294° West 401 461 32,000  Level Indianapolis Center
10:19AM 38.8203 -88.2614 294° West 401 461 32,000  Level Indianapolis Center
10:20AM 38.8747 -88.4178 294° West 400 460 32,000  Level Indianapolis Center
10:21AM 38.9194 -88.5506 293° West 403 464 32,000  Level Indianapolis Center
10:22AM 38.9642 -88.6817 294° West 402 463 32,000  Level Indianapolis Center
10:23AM 39.0089 -88.8133 294° West 402 463 32,000  Level Indianapolis Center
10:24AM 39.0528 -88.9467 293° West 402 463 32,000  Level Indianapolis Center
10:25AM 39.0975 -89.0800 293° West 404 465 32,000  Level Indianapolis Center
10:26AM 39.1417 -89.2108 294° West 400 460 32,000  Level Indianapolis Center
10:27AM 39.2050 -89.4036 293° West 399 459 32,000  Level Kansas City Center
10:28AM 39.2564 -89.5567 293° West 392 451 32,000  Level Kansas City Center
10:29AM 39.2986 -89.6858 293° West 392 451 32,000  Level Kansas City Center
10:30AM 39.3403 -89.8131 293° West 390 449 32,000  Level Kansas City Center
10:31AM 39.3817 -89.9414 293° West 390 449 32,000  Level Kansas City Center
10:33AM 39.4233 -90.0678 293° West 387 445 32,000  Level Kansas City Center
10:34AM 39.4728 -90.2231 292° West 392 451 32,000  Level Kansas City Center
10:35AM 39.5142 -90.3506 293° West 389 448 32,000  Level Kansas City Center
10:36AM 39.5547 -90.4775 293° West 386 444 32,000  Level Kansas City Center
10:37AM 39.5958 -90.6042 293° West 384 442 32,000  Level Kansas City Center
10:38AM 39.6353 -90.7314 292° West 383 441 32,000  Level Kansas City Center
10:39AM 39.6758 -90.8597 292° West 385 443 32,000 -180 Level Kansas City Center
10:41AM 39.7639 -91.1442 292° West 387 445 31,600 -420 Descending Kansas City Center
10:42AM 39.8039 -91.2714 292° West 398 458 30,800 -780 Descending Kansas City Center
10:43AM 39.8456 -91.4044 292° West 400 460 30,000 -420 Descending Kansas City Center
10:44AM 39.8931 -91.5625 291° West 396 456 30,000  Level Kansas City Center
10:45AM 39.9328 -91.6928 292° West 392 451 30,000  Level Kansas City Center
10:46AM 39.9717 -91.8222 291° West 388 447 30,000  Level Kansas City Center
10:47AM 40.0108 -91.9506 292° West 385 443 30,000  Level Kansas City Center
10:48AM 40.0494 -92.0775 292° West 380 437 30,000  Level Kansas City Center
10:49AM 40.0953 -92.2286 292° West 376 433 30,000  Level Kansas City Center
10:50AM 40.1344 -92.3614 291° West 374 430 30,000  Level Kansas City Center
10:51AM 40.1689 -92.4817 291° West 371 427 30,000  Level Kansas City Center
10:52AM 40.2131 -92.6278 292° West 381 438 30,000  Level Kansas City Center
10:53AM 40.2489 -92.7500 291° West 378 435 30,000  Level Kansas City Center
10:54AM 40.2911 -92.8942 291° West 379 436 30,000  Level Kansas City Center
10:55AM 40.3275 -93.0178 291° West 380 437 30,000  Level Kansas City Center
10:56AM 40.3675 -93.1581 291° West 381 438 30,000  Level Kansas City Center
10:57AM 40.4050 -93.2872 291° West 382 440 30,000  Level Kansas City Center
10:58AM 40.4425 -93.4175 291° West 383 441 30,000  Level Kansas City Center
10:59AM 40.4797 -93.5469 291° West 383 441 30,000  Level Kansas City Center
11:00AM 40.5161 -93.6767 290° West 382 440 30,000  Level Kansas City Center
11:01AM 40.5503 -93.8064 289° West 382 440 30,000  Level Minneapolis Center
11:02AM 40.5869 -93.9369 290° West 384 442 30,000  Level Minneapolis Center
11:04AM 40.6142 -94.0725 285° West 386 444 30,000 -360 Level Minneapolis Center
11:05AM 40.6447 -94.2647 282° West 387 445 29,300 -1,260 Descending Minneapolis Center
11:06AM 40.6656 -94.3986 282° West 382 440 27,500 -2,040 Descending Minneapolis Center
11:07AM 40.6872 -94.5289 282° West 372 428 25,200 -2,400 Descending Minneapolis Center
11:08AM 40.7108 -94.6742 282° West 370 426 22,600 -2,400 Descending Minneapolis Center
11:09AM 40.7314 -94.8017 282° West 359 413 20,300 -2,040 Descending Minneapolis Center
11:10AM 40.7506 -94.9197 282° West 338 389 18,100 -2,100 Descending Minneapolis Center
11:11AM 40.8131 -95.0217 309° West 317 365 16,000 -2,460 Descending Minneapolis Center
11:12AM 40.8603 -95.1203 302° West 315 362 13,600 -2,460 Descending Minneapolis Center
11:13AM 40.9064 -95.2083 305° West 295 339 11,100 -2,040 Descending Minneapolis Center
11:14AM 40.9456 -95.3061 298° West 285 328 8,900 -2,040 Descending Minneapolis Center
11:15AM 40.9914 -95.3689 314° West 249 287 7,000 -2,160 Descending Minneapolis Center
11:16AM 41.0253 -95.4642 295° West 269 310 5,200 -1,020 Descending Minneapolis Center
11:17AM 41.0522 -95.5522 292° West 264 304 5,000 -120 Descending Minneapolis Center
11:18AM 41.0864 -95.6228 303° West 217 250 5,000  Level Minneapolis Center
11:19AM 41.1133 -95.6806 302° West 187 215 5,000 -180 Level Minneapolis Center
11:20AM 41.1200 -95.6978 297° West 215 247 4,800 -780 Descending Minneapolis Center
11:21AM 41.1572 -95.7767 302° West 192 221 3,700 -900 Descending Minneapolis Center
11:22AM 41.1825 -95.8344 300° West 186 214 3,000 -480 Descending Minneapolis Center
11:23AM 41.2089 -95.8792 308° West 169 194 2,800 -480 Descending Minneapolis Center
11:24AM 41.2469 -95.8953 342° North 156 180 2,100 -720 Descending Minneapolis Center
11:25AM 41.2747 -95.8939 North 138 159 1,400 -720 Descending Minneapolis Center
11:27AM 41.3000 -95.8833 323° Northwest  Level FlightAware Approximate